TOURFACTS.DK  
Stats and Facts from Tour de France.

Tour de France 2018 starts in 254 days
  Riders   Stages   Teams   Summits   Yearly  


 
Search by year

 2017 - St. 21:  14824 starters.
  5131 different riders.
  634 teams.
  2232 stages.
  454 restdays.
  439589.60 km.
  5653 abandonnees.


Top 3
Christopher Froome86:20:55
Rigoberto Uran86:21:49
Romain Bardet86:23:15
Warren Barguil169 pt.
Primoz Roglic80 pt.
Thomas De Gendt64 pt.
Michael Matthews359 pt.
André Greipel234 pt.
Edvald Boasson Hagen220 pt.
Simon Yates86:27:09
Louis Meintjes86:29:15
Emanuel Buchmann86:54:16
Facts from Tour de France 2014
  |   Stages.  |   Stage winners.  |   Days in yellow  |   Average speed.  |   Route.  |   Teams.  |   All riders.  |   Rookies.  |   Withdrawls.  |  

  |   GC.  |   Polka  |   Green  |   White  |   Summits. (In tour)  |   Summits. (Points)  |   Miscellaneous.  |  

Stage 8 on 12 - 07 - 2014
         Owning:    Vincenzo Nibali      Blel Kadri      Peter Sagan      Peter Sagan  

Pick a stage:  1 2 3 4 5 6 7 8 9 10 11 12 13 14 15 16 17 18 19 20 21
  TomblaineGérardmer La-Mauselaine | Dist: 161.00 km.
Cat: 2Col de la Croix des MoinatsFRABlel Kadri
5 points
 
Cat: 2Col de Grosse PierreFRABlel Kadri
5 points
 
Cat: 3Gérardmer La MauselaineFRABlel Kadri
2 points
 

Average speed for all riders in stage:  39,617 km./hr.
    Place:Name:Team:Time:Km/h:
FRABlel KadriFRAAg2r La Mondiale03:49:28  +  00:00:00=42,098 
ESPAlberto ContadorRUSTinkoff Saxo03:51:45  +  00:02:17=41,683 
ITAVincenzo NibaliKAZAstana Pro Team03:51:48  +  00:02:20=41,674 
4 AUSRichie PorteGBRSky Procycling03:51:52  +  00:02:24=41,662 
5 FRAThibaut PinotFRAFDJ.fr03:51:56  +  00:02:28=41,650 
6 FRAJean-Christophe PeraudFRAAg2r La Mondiale03:51:56  +  00:02:28=41,650 
7 ESPAlejandro ValverdeESPMovistar Team03:52:04  +  00:02:36=41,626 
8 USATejay Van GarderenUSABMC Racing Team03:52:08  +  00:02:40=41,614 
9 FRARomain BardetFRAAg2r La Mondiale03:52:16  +  00:02:48=41,590 
10 FRASylvain ChavanelCHEIAM Cycling03:52:22  +  00:02:54=41,572 
11 NEDBauke MollemaNLDBelkin Pro Cycling03:52:23  +  00:02:55=41,569 
12 PORRui CostaITALampre-Merida03:52:29  +  00:03:01=41,551 
13 ESPMikel NieveGBRSky Procycling03:52:29  +  00:03:01=41,551 
14 NEDNiki TerpstraBELOmega Pharma – Quick Step03:52:56  +  00:03:28=41,471 
15 FRABrice FeilluFRABretagne - Séché Environnement03:53:01  +  00:03:33=41,456 
16 FRANicolas RocheRUSTinkoff Saxo03:53:01  +  00:03:33=41,456 
17 FRAJohn GadretESPMovistar Team03:53:03  +  00:03:35=41,450 
18 BELJurgen Van Den BroeckBELLotto-Belisol Team03:53:05  +  00:03:37=41,444 
19 FRAPierre RollandFRATeam Europcar03:53:05  +  00:03:37=41,444 
20 FRAArnold JeannessonFRAFDJ.fr03:53:05  +  00:03:37=41,444 
21 ESPDaniel NavarroFRACofidis – Solutions Crédits03:53:12  +  00:03:44=41,424 
22 WALGeraint ThomasGBRSky Procycling03:53:12  +  00:03:44=41,424 
23 ITAMichele ScarponiKAZAstana Pro Team03:53:15  +  00:03:47=41,415 
24 NEDLaurens ten DamNLDBelkin Pro Cycling03:53:19  +  00:03:51=41,403 
25 LUXFränk SchleckUSATrek Factory Racing03:53:19  +  00:03:51=41,403 
26 FRACyril GautierFRATeam Europcar03:53:23  +  00:03:55=41,391 
27 POLMichal KwiatkowskiBELOmega Pharma – Quick Step03:53:24  +  00:03:56=41,388 
28 URSTanel KangertKAZAstana Pro Team03:53:30  +  00:04:02=41,370 
29 SUIJakob FuglsangKAZAstana Pro Team03:53:30  +  00:04:02=41,370 
30 FRATony GallopinBELLotto-Belisol Team03:53:30  +  00:04:02=41,370 
31 JPNChristopher HornerITALampre-Merida03:53:47  +  00:04:19=41,320 
32 RUSYury TrofimovRUSTeam Katusha03:53:47  +  00:04:19=41,320 
33 NEDSteven KruijswijkNLDBelkin Pro Cycling03:53:56  +  00:04:28=41,294 
34 PORTiago PintoDEUTeam NetApp – Endura03:53:56  +  00:04:28=41,294 
35 USAAndrew TalanskyUSAGarmin Sharp03:54:05  +  00:04:37=41,267 
36 AUSMichael RogersRUSTinkoff Saxo03:54:24  +  00:04:56=41,212 
37 NEDTom-Jelte SlagterUSAGarmin Sharp03:54:32  +  00:05:04=41,188 
38 CZELeopold KönigDEUTeam NetApp – Endura03:54:38  +  00:05:10=41,171 
39 ESPBeñat IntxaustiESPMovistar Team03:54:38  +  00:05:10=41,171 
40 ESPHaimar ZubeldiaUSATrek Factory Racing03:54:38  +  00:05:10=41,171 
41 GERTony MartinBELOmega Pharma – Quick Step03:54:54  +  00:05:26=41,124 
42 ESPLuis Angel MateFRACofidis – Solutions Crédits03:55:07  +  00:05:39=41,086 
43 ENGSimon YatesAUSOrica - GreenEDGE03:55:27  +  00:05:59=41,028 
44 ITAGiovanni ViscontiESPMovistar Team03:56:17  +  00:06:49=40,883 
45 FRAThomas VoecklerFRATeam Europcar03:56:17  +  00:06:49=40,883 
46 FRAArthur VichotFRAFDJ.fr03:56:17  +  00:06:49=40,883 
47 BELJan BakelantsBELOmega Pharma – Quick Step03:57:35  +  00:08:07=40,659 
48 ESPDavid LopezGBRSky Procycling04:00:02  +  00:10:34=40,244 
49 USABenjamin KingUSAGarmin Sharp04:00:02  +  00:10:34=40,244 
50 BLRVasil KiryienkaGBRSky Procycling04:00:02  +  00:10:34=40,244 
51 POLRafal MajkaRUSTinkoff Saxo04:00:02  +  00:10:34=40,244 
52 FRAMickaël CherelFRAAg2r La Mondiale04:00:02  +  00:10:34=40,244 
53 LUXBen GastauerFRAAg2r La Mondiale04:00:02  +  00:10:34=40,244 
54 ESPJon Izaguirre InsaustiESPMovistar Team04:00:02  +  00:10:34=40,244 
55 SVKPeter VelitsUSABMC Racing Team04:00:02  +  00:10:34=40,244 
56 FRAAmaël MoinardUSABMC Racing Team04:00:02  +  00:10:34=40,244 
57 FRAAdrien PetitFRACofidis – Solutions Crédits04:00:11  +  00:10:43=40,219 
58 NEDLieuwe WestraKAZAstana Pro Team04:00:22  +  00:10:54=40,189 
59 NEDTom DumoulinNLDTeam Giant - Shimano04:00:58  +  00:11:30=40,089 
60 FRAFlorian GuillouFRABretagne - Séché Environnement04:00:58  +  00:11:30=40,089 
61 HRVKristijan DurasekITALampre-Merida04:00:58  +  00:11:30=40,089 
62 COLJosé SerpaITALampre-Merida04:00:58  +  00:11:30=40,089 
63 NEDBram TankinkNLDBelkin Pro Cycling04:00:58  +  00:11:30=40,089 
64 FRAJérôme PineauCHEIAM Cycling04:02:25  +  00:12:57=39,849 
65 SUIMarcel WyssCHEIAM Cycling04:02:25  +  00:12:57=39,849 
66 ESPRafael Valls FerriITALampre-Merida04:02:25  +  00:12:57=39,849 
67 FRAPerrig QuemeneurFRATeam Europcar04:03:02  +  00:13:34=39,748 
68 URSRein TaaramäeFRACofidis – Solutions Crédits04:04:16  +  00:14:48=39,547 
69 FRAJérémy RoyFRAFDJ.fr04:04:16  +  00:14:48=39,547 
70 USAPeter StetinaUSABMC Racing Team04:04:16  +  00:14:48=39,547 
71 POLMichal GolasBELOmega Pharma – Quick Step04:04:45  +  00:15:17=39,469 
72 BELJürgen RoelandtsBELLotto-Belisol Team04:05:41  +  00:16:13=39,319 
73 AUSAdam HansenBELLotto-Belisol Team04:05:41  +  00:16:13=39,319 
74 FRAMatthieu LadagnousFRAFDJ.fr04:05:41  +  00:16:13=39,319 
75 ESPJoaquim RodriguezRUSTeam Katusha04:05:50  +  00:16:22=39,295 
76 ESPJosé Joaquin RojasESPMovistar Team04:05:50  +  00:16:22=39,295 
77 PORNelson OliveiraITALampre-Merida04:05:50  +  00:16:22=39,295 
78 SUIMichael SchärUSABMC Racing Team04:05:50  +  00:16:22=39,295 
79 PORSergio PaulinhoRUSTinkoff Saxo04:05:50  +  00:16:22=39,295 
80 ESPDavid de la CruzDEUTeam NetApp – Endura04:06:34  +  00:17:06=39,178 
81 BELJohan VansummerenUSAGarmin Sharp04:07:19  +  00:17:51=39,059 
82 NEDKoen De KortNLDTeam Giant - Shimano04:07:19  +  00:17:51=39,059 
83 RUSVladimir IsaichevRUSTeam Katusha04:07:19  +  00:17:51=39,059 
84 FRACédric PineauFRAFDJ.fr04:07:19  +  00:17:51=39,059 
85 NEDRoy CurversNLDTeam Giant - Shimano04:07:19  +  00:17:51=39,059 
86 FRANicolas EdetFRACofidis – Solutions Crédits04:07:19  +  00:17:51=39,059 
87 ESPMarkel IrizarUSATrek Factory Racing04:07:19  +  00:17:51=39,059 
88 FRACyril LemoineFRACofidis – Solutions Crédits04:07:19  +  00:17:51=39,059 
89 FRAAnthony DelaplaceFRABretagne - Séché Environnement04:07:19  +  00:17:51=39,059 
90 CANChristian MeierAUSOrica - GreenEDGE04:07:19  +  00:17:51=39,059 
91 AUSSimon GerransAUSOrica - GreenEDGE04:07:19  +  00:17:51=39,059 
92 FRABenoît JarrierFRABretagne - Séché Environnement04:07:19  +  00:17:51=39,059 
93 AUSSimon ClarkeAUSOrica - GreenEDGE04:07:19  +  00:17:51=39,059 
94 UKRAndriy GrivkoKAZAstana Pro Team04:07:19  +  00:17:51=39,059 
95 FRAArmindo FonsecaFRABretagne - Séché Environnement04:07:19  +  00:17:51=39,059 
96 BELJens KeukeleireAUSOrica - GreenEDGE04:07:19  +  00:17:51=39,059 
97 NEDAlbert TimmerNLDTeam Giant - Shimano04:07:19  +  00:17:51=39,059 
98 BELGreg Van AvermaetUSABMC Racing Team04:07:19  +  00:17:51=39,059 
99 AUSLuke DurbridgeAUSOrica - GreenEDGE04:07:19  +  00:17:51=39,059 
100 COLJanier AcevedoUSAGarmin Sharp04:07:19  +  00:17:51=39,059 
101 CZEJan BártaDEUTeam NetApp – Endura04:07:19  +  00:17:51=39,059 
102 SUIReto HollensteinCHEIAM Cycling04:07:19  +  00:17:51=39,059 
103 PORJosé João PimentaDEUTeam NetApp – Endura04:07:19  +  00:17:51=39,059 
104 SUIGregory RastUSATrek Factory Racing04:07:19  +  00:17:51=39,059 
105 SUIFabian CancellaraUSATrek Factory Racing04:07:19  +  00:17:51=39,059 
106 RUSAlexander PorsevRUSTeam Katusha04:07:19  +  00:17:51=39,059 
107 ESPImanol ErvitiESPMovistar Team04:07:19  +  00:17:51=39,059 
108 FRAArnaud GérardFRABretagne - Séché Environnement04:07:19  +  00:17:51=39,059 
109 ESPJesus HerradaESPMovistar Team04:07:19  +  00:17:51=39,059 
110 CANSvein TuftAUSOrica - GreenEDGE04:07:19  +  00:17:51=39,059 
111 FRAFlorian VachonFRABretagne - Séché Environnement04:07:19  +  00:17:51=39,059 
112 DENLars BakBELLotto-Belisol Team04:07:19  +  00:17:51=39,059 
113 BELMaarten WynantsNLDBelkin Pro Cycling04:07:19  +  00:17:51=39,059 
114 DENMichael MørkøvRUSTinkoff Saxo04:07:19  +  00:17:51=39,059 
115 FRAAlexandre PichotFRATeam Europcar04:07:19  +  00:17:51=39,059 
116 AUSHeinrich HausslerCHEIAM Cycling04:07:19  +  00:17:51=39,059 
117 FRAMickael DelageFRAFDJ.fr04:07:19  +  00:17:51=39,059 
118 NEDLars BoomNLDBelkin Pro Cycling04:07:19  +  00:17:51=39,059 
119 GERJens VoigtUSATrek Factory Racing04:07:19  +  00:17:51=39,059 
120 ITAMatteo TosattoRUSTinkoff Saxo04:07:19  +  00:17:51=39,059 
121 ITADaniel OssUSABMC Racing Team04:07:19  +  00:17:51=39,059 
122 AUSMathew HaymanAUSOrica - GreenEDGE04:07:52  +  00:18:24=38,973 
123 NEDSebastian LangeveldUSAGarmin Sharp04:08:46  +  00:19:18=38,832 
124 GERMarcus BurghardtUSABMC Racing Team04:08:58  +  00:19:30=38,800 
125 ITAAlessandro PetacchiBELOmega Pharma – Quick Step04:09:13  +  00:19:45=38,761 
126 FRABryan CoquardFRATeam Europcar04:09:16  +  00:19:48=38,754 
127 FRAKévin RezaFRATeam Europcar04:09:16  +  00:19:48=38,754 
128 NEDTom LeezerNLDBelkin Pro Cycling04:09:16  +  00:19:48=38,754 
129 ITAFabio SabatiniITACannondale Pro Cycling04:09:21  +  00:19:53=38,741 
130 SVKPeter SaganITACannondale Pro Cycling04:09:21  +  00:19:53=38,741 
131 ITAMarco MarcatoITACannondale Pro Cycling04:09:21  +  00:19:53=38,741 
132 AUSMark RenshawBELOmega Pharma – Quick Step04:09:21  +  00:19:53=38,741 
133 USAAlex HowesUSAGarmin Sharp04:09:21  +  00:19:53=38,741 
134 ITAAlessandro VanottiKAZAstana Pro Team04:09:33  +  00:20:05=38,710 
135 SLOKristjan KorenITACannondale Pro Cycling04:10:00  +  00:20:32=38,640 
136 GERRoger KlugeCHEIAM Cycling04:10:00  +  00:20:32=38,640 
137 USAEdward KingITACannondale Pro Cycling04:10:00  +  00:20:32=38,640 
138 GERAndré GreipelBELLotto-Belisol Team04:10:00  +  00:20:32=38,640 
139 GERMarcel SiebergBELLotto-Belisol Team04:10:00  +  00:20:32=38,640 
140 SUISébastien ReichenbachCHEIAM Cycling04:10:00  +  00:20:32=38,640 
141 SLOSimon SpilakRUSTeam Katusha04:10:00  +  00:20:32=38,640 
142 FRARomain FeilluFRABretagne - Séché Environnement04:10:00  +  00:20:32=38,640 
143 SUIMartin ElmigerCHEIAM Cycling04:10:00  +  00:20:32=38,640 
144 URSGatis SmukulisRUSTeam Katusha04:10:00  +  00:20:32=38,640 
145 FRARudy MolardFRACofidis – Solutions Crédits04:10:00  +  00:20:32=38,640 
146 GERJohn DegenkolbNLDTeam Giant - Shimano04:10:00  +  00:20:32=38,640 
147 POLBartosz HuzarskiDEUTeam NetApp – Endura04:10:00  +  00:20:32=38,640 
148 GERPaul VossDEUTeam NetApp – Endura04:10:00  +  00:20:32=38,640 
149 AUSZakkari DempsterDEUTeam NetApp – Endura04:10:00  +  00:20:32=38,640 
150 ESPEgoitz GarciaFRACofidis – Solutions Crédits04:10:00  +  00:20:32=38,640 
151 SUIMichael AlbasiniAUSOrica - GreenEDGE04:10:00  +  00:20:32=38,640 
152 GERMarcel KittelNLDTeam Giant - Shimano04:10:00  +  00:20:32=38,640 
153 USAMatthew BuscheUSATrek Factory Racing04:10:00  +  00:20:32=38,640 
154 GERAndreas SchillingerDEUTeam NetApp – Endura04:10:00  +  00:20:32=38,640 
155 ITAElia VivianiITACannondale Pro Cycling04:10:00  +  00:20:32=38,640 
156 ITAAlessandro De MarchiITACannondale Pro Cycling04:10:00  +  00:20:32=38,640 
157 FRAYohann GèneFRATeam Europcar04:10:00  +  00:20:32=38,640 
158 ESPRubén PlazaESPMovistar Team04:10:00  +  00:20:32=38,640 
159 FRAChristophe RiblonFRAAg2r La Mondiale04:10:00  +  00:20:32=38,640 
160 ITAMatteo MontagutiFRAAg2r La Mondiale04:10:00  +  00:20:32=38,640 
161 FRASébastien MinardFRAAg2r La Mondiale04:10:00  +  00:20:32=38,640 
162 FRASamuel DumoulinFRAAg2r La Mondiale04:10:00  +  00:20:32=38,640 
163 JPNYukiya ArashiroFRATeam Europcar04:10:00  +  00:20:32=38,640 
164 NORAlexander KristoffRUSTeam Katusha04:10:00  +  00:20:32=38,640 
165 FRAJean-Marc MarinoITACannondale Pro Cycling04:10:00  +  00:20:32=38,640 
166 POLMaciej BodnarITACannondale Pro Cycling04:10:00  +  00:20:32=38,640 
167 ITAMatteo TrentinBELOmega Pharma – Quick Step04:10:00  +  00:20:32=38,640 
168 FRAJulien SimonFRACofidis – Solutions Crédits04:10:00  +  00:20:32=38,640 
169 FRAArnaud DémareFRAFDJ.fr04:10:00  +  00:20:32=38,640 
170 FRAWilliam BonnetFRAFDJ.fr04:10:00  +  00:20:32=38,640 
171 FRAJean-Marc BideauFRABretagne - Séché Environnement04:10:00  +  00:20:32=38,640 
172 USADanny PateGBRSky Procycling04:10:00  +  00:20:32=38,640 
173 AUTBernhard EiselGBRSky Procycling04:10:00  +  00:20:32=38,640 
174 KAZDmitriy GruzdevKAZAstana Pro Team04:10:00  +  00:20:32=38,640 
175 KAZMaxim IglinskiyKAZAstana Pro Team04:10:00  +  00:20:32=38,640 
176 NEDTom VeelersNLDTeam Giant - Shimano04:10:15  +  00:20:47=38,601 
177 ITADaniele BennatiRUSTinkoff Saxo04:10:15  +  00:20:47=38,601 
178 BELSep VanmarckeNLDBelkin Pro Cycling04:10:21  +  00:20:53=38,586 
179 BELDries DevenynsNLDTeam Giant - Shimano04:10:21  +  00:20:53=38,586 
180 ITALuca PaoliniRUSTeam Katusha04:10:36  +  00:21:08=38,547 
181 NZLJack BauerUSAGarmin Sharp04:10:52  +  00:21:24=38,507 
182 URSRamunas NavardauskasUSAGarmin Sharp04:10:52  +  00:21:24=38,507 
183 ITADavide CimolaiITALampre-Merida04:11:11  +  00:21:43=38,458 
184 CHNCheng JiNLDTeam Giant - Shimano04:11:32  +  00:22:04=38,404 

Withdrawls: 2
 
Rider
Team
Reason
133  BELBart De ClercqBELLotto-Belisol TeamDid not finish
191  SUIMathias FrankCHEIAM CyclingDid not finish

Todays birthdays.

1886  Jean Meziere
1887  Pierre Herbette
1887  Octave Lapize
1898  Felix Manthey
1920  René Biever
1920  Georges Ramoulux
1928  René Marigil
1940  Jean-Pierre Genet
1944  Giannino Bianco
1945  Eddy Cael
1950  Bert Pronk
1954  Marc Dierickx
1961  Chris Carmichael
1973  Levi Leipheimer